Time,TemperatureF,DewpointF,PressureIn,WindDirection,WindDirectionDegrees,WindSpeedMPH,WindSpeedGustMPH,Humidity,HourlyPrecipIn,Conditions,Clouds,dailyrainin,SoftwareType,DateUTC
2013-04-01 00:01:00,35.0,33.4,29.57,NW,315,18.0,37.0,94,0.00,,,-99.99,Weather View 32 v60,2013-04-01 04:01:00,
2013-04-01 00:02:00,35.0,33.4,29.57,NW,315,18.0,37.0,94,0.00,,,-99.99,Weather View 32 v60,2013-04-01 04:02:00,
2013-04-01 00:11:00,35.0,32.9,29.58,NNE,22,22.0,37.0,92,0.00,,,-99.99,Weather View 32 v60,2013-04-01 04:11:00,
2013-04-01 00:16:00,34.0,31.6,29.58,North,360,33.0,53.0,91,0.00,,,-99.99,Weather View 32 v60,2013-04-01 04:16:00,
2013-04-01 00:21:00,34.0,31.9,29.56,North,360,19.0,53.0,92,0.00,,,-99.99,Weather View 32 v60,2013-04-01 04:21:00,
2013-04-01 00:26:00,34.0,32.5,29.56,North,360,21.0,53.0,94,0.00,,,-99.99,Weather View 32 v60,2013-04-01 04:26:00,
2013-04-01 00:41:00,34.0,30.3,29.59,NNE,22,19.0,53.0,86,0.00,,,-99.99,Weather View 32 v60,2013-04-01 04:41:00,
2013-04-01 00:46:00,34.0,28.8,29.59,NE,45,15.0,53.0,81,0.00,,,-99.99,Weather View 32 v60,2013-04-01 04:46:00,
2013-04-01 00:56:00,33.0,29.0,29.59,NE,45,15.0,53.0,85,0.00,,,-99.99,Weather View 32 v60,2013-04-01 04:56:00,
2013-04-01 01:02:00,33.0,29.0,29.60,NE,45,13.0,53.0,85,0.00,,,-99.99,Weather View 32 v60,2013-04-01 05:02:00,
2013-04-01 01:16:00,33.0,27.8,29.60,North,360,14.0,40.0,81,0.00,,,-99.99,Weather View 32 v60,2013-04-01 05:16:00,
2013-04-01 01:26:00,33.0,28.1,29.61,North,360,19.0,40.0,82,0.00,,,-99.99,Weather View 32 v60,2013-04-01 05:26:00,
2013-04-01 01:31:00,33.0,26.3,29.60,North,360,28.0,40.0,76,0.00,,,-99.99,Weather View 32 v60,2013-04-01 05:31:00,
2013-04-01 01:41:00,33.0,27.2,29.61,North,360,25.0,47.0,79,0.00,,,-99.99,Weather View 32 v60,2013-04-01 05:41:00,
2013-04-01 01:46:00,33.0,25.0,29.61,North,360,13.0,47.0,72,0.00,,,-99.99,Weather View 32 v60,2013-04-01 05:46:00,
2013-04-01 01:51:00,33.0,25.3,29.62,West,270,9.0,47.0,73,0.00,,,-99.99,Weather View 32 v60,2013-04-01 05:51:00,
2013-04-01 02:01:00,32.0,23.3,29.62,NNE,22,16.0,47.0,70,0.00,,,-99.99,Weather View 32 v60,2013-04-01 06:01:00,
2013-04-01 02:16:00,32.0,24.3,29.63,North,360,19.0,47.0,73,0.00,,,-99.99,Weather View 32 v60,2013-04-01 06:16:00,
2013-04-01 02:31:00,32.0,25.9,29.64,North,360,25.0,47.0,78,0.00,,,-99.99,Weather View 32 v60,2013-04-01 06:31:00,
2013-04-01 02:41:00,32.0,26.8,29.64,NE,45,11.0,45.0,81,0.00,,,-99.99,Weather View 32 v60,2013-04-01 06:41:00,
2013-04-01 02:46:00,32.0,26.2,29.64,North,360,21.0,45.0,79,0.00,,,-99.99,Weather View 32 v60,2013-04-01 06:46:00,
2013-04-01 03:01:00,31.0,24.3,29.65,NNE,22,25.0,45.0,76,0.00,,,-99.99,Weather View 32 v60,2013-04-01 07:01:00,
2013-04-01 03:06:00,31.0,24.0,29.65,North,360,29.0,45.0,75,0.00,,,-99.99,Weather View 32 v60,2013-04-01 07:06:00,
2013-04-01 03:16:00,31.0,24.0,29.65,NE,45,12.0,40.0,75,0.00,,,-99.99,Weather View 32 v60,2013-04-01 07:16:00,
2013-04-01 03:31:00,31.0,23.4,29.65,NNE,22,18.0,40.0,73,0.00,,,-99.99,Weather View 32 v60,2013-04-01 07:31:00,
2013-04-01 03:36:00,31.0,24.9,29.65,NNW,337,22.0,40.0,78,0.00,,,-99.99,Weather View 32 v60,2013-04-01 07:36:00,
2013-04-01 03:51:00,31.0,24.0,29.66,North,360,20.0,40.0,75,0.00,,,-99.99,Weather View 32 v60,2013-04-01 07:51:00,
2013-04-01 04:01:00,31.0,24.6,29.67,NNE,22,14.0,40.0,77,0.00,,,-99.99,Weather View 32 v60,2013-04-01 08:01:00,
2013-04-01 04:11:00,31.0,22.4,29.67,North,360,17.0,40.0,70,0.00,,,-99.99,Weather View 32 v60,2013-04-01 08:11:00,
2013-04-01 04:21:00,31.0,24.6,29.68,North,360,27.0,40.0,77,0.00,,,-99.99,Weather View 32 v60,2013-04-01 08:21:00,
2013-04-01 04:26:00,31.0,22.7,29.68,North,360,23.0,43.0,71,0.00,,,-99.99,Weather View 32 v60,2013-04-01 08:26:00,
2013-04-01 04:31:00,31.0,24.9,29.68,North,360,15.0,45.0,78,0.00,,,-99.99,Weather View 32 v60,2013-04-01 08:31:00,
2013-04-01 04:41:00,31.0,23.0,29.68,North,360,30.0,45.0,72,0.00,,,-99.99,Weather View 32 v60,2013-04-01 08:41:00,
2013-04-01 04:51:00,31.0,22.4,29.67,North,360,32.0,45.0,70,0.00,,,-99.99,Weather View 32 v60,2013-04-01 08:51:00,
2013-04-01 04:56:00,31.0,24.0,29.67,North,360,23.0,45.0,75,0.00,,,-99.99,Weather View 32 v60,2013-04-01 08:56:00,
2013-04-01 05:05:00,31.0,23.7,29.68,North,360,40.0,51.0,74,0.00,,,-99.99,Weather View 32 v60,2013-04-01 09:05:00,
2013-04-01 05:21:00,31.0,23.4,29.69,North,360,29.0,51.0,73,0.00,,,-99.99,Weather View 32 v60,2013-04-01 09:21:00,
2013-04-01 05:26:00,31.0,23.0,29.69,North,360,28.0,51.0,72,0.00,,,-99.99,Weather View 32 v60,2013-04-01 09:26:00,
2013-04-01 05:46:00,31.0,24.6,29.70,North,360,24.0,51.0,77,0.00,,,-99.99,Weather View 32 v60,2013-04-01 09:46:00,
2013-04-01 05:51:00,31.0,21.7,29.70,NNW,337,19.0,51.0,68,0.00,,,-99.99,Weather View 32 v60,2013-04-01 09:51:00,
2013-04-01 05:56:00,31.0,19.9,29.70,NNW,337,21.0,51.0,63,0.00,,,-99.99,Weather View 32 v60,2013-04-01 09:56:00,
2013-04-01 06:05:00,30.0,17.0,29.69,North,360,26.0,51.0,58,0.00,,,-99.99,Weather View 32 v60,2013-04-01 10:05:00,
2013-04-01 06:11:00,30.0,18.9,29.70,NNW,337,22.0,48.0,63,0.00,,,-99.99,Weather View 32 v60,2013-04-01 10:11:00,
2013-04-01 06:21:00,30.0,18.9,29.71,North,360,25.0,48.0,63,0.00,,,-99.99,Weather View 32 v60,2013-04-01 10:21:00,
2013-04-01 06:26:00,30.0,18.9,29.71,NW,315,24.0,48.0,63,0.00,,,-99.99,Weather View 32 v60,2013-04-01 10:26:00,
2013-04-01 06:36:00,30.0,20.7,29.73,NW,315,11.0,48.0,68,0.00,,,-99.99,Weather View 32 v60,2013-04-01 10:36:00,
2013-04-01 06:46:00,30.0,21.1,29.73,NNW,337,21.0,48.0,69,0.00,,,-99.99,Weather View 32 v60,2013-04-01 10:46:00,
2013-04-01 06:56:00,30.0,20.7,29.74,North,360,25.0,48.0,68,0.00,,,-99.99,Weather View 32 v60,2013-04-01 10:56:00,
2013-04-01 07:01:00,29.0,19.8,29.73,North,360,37.0,45.0,68,0.00,,,-99.99,Weather View 32 v60,2013-04-01 11:01:00,
2013-04-01 07:11:00,29.0,21.4,29.74,North,360,18.0,62.0,73,0.00,,,-99.99,Weather View 32 v60,2013-04-01 11:11:00,
2013-04-01 07:21:00,29.0,22.1,29.75,North,360,27.0,62.0,75,0.00,,,-99.99,Weather View 32 v60,2013-04-01 11:21:00,
2013-04-01 07:36:00,28.0,18.8,29.75,North,360,26.0,62.0,68,0.00,,,-99.99,Weather View 32 v60,2013-04-01 11:36:00,
2013-04-01 07:46:00,28.0,18.5,29.76,North,360,36.0,62.0,67,0.00,,,-99.99,Weather View 32 v60,2013-04-01 11:46:00,
2013-04-01 08:07:00,28.0,19.1,29.78,North,360,19.0,52.0,69,0.00,,,-99.99,Weather View 32 v60,2013-04-01 12:07:00,
2013-04-01 08:16:00,28.0,18.8,29.77,North,360,25.0,52.0,68,0.00,,,-99.99,Weather View 32 v60,2013-04-01 12:16:00,
2013-04-01 08:21:00,28.0,17.8,29.78,North,360,25.0,52.0,65,0.00,,,-99.99,Weather View 32 v60,2013-04-01 12:21:00,
2013-04-01 08:31:00,28.0,16.3,29.78,North,360,23.0,51.0,61,0.00,,,-99.99,Weather View 32 v60,2013-04-01 12:31:00,
2013-04-01 08:41:00,28.0,15.5,29.79,NNE,22,22.0,51.0,59,0.00,,,-99.99,Weather View 32 v60,2013-04-01 12:41:00,
2013-04-01 08:51:00,28.0,17.8,29.79,North,360,28.0,46.0,65,0.00,,,-99.99,Weather View 32 v60,2013-04-01 12:51:00,
2013-04-01 08:56:00,28.0,18.5,29.79,North,360,23.0,46.0,67,0.00,,,-99.99,Weather View 32 v60,2013-04-01 12:56:00,
2013-04-01 09:01:00,27.0,16.1,29.80,North,360,30.0,46.0,63,0.00,,,-99.99,Weather View 32 v60,2013-04-01 13:01:00,
2013-04-01 09:07:00,28.0,18.1,29.80,WSW,247,9.0,46.0,66,0.00,,,-99.99,Weather View 32 v60,2013-04-01 13:07:00,
2013-04-01 09:16:00,27.0,16.1,29.80,North,360,26.0,46.0,63,0.00,,,-99.99,Weather View 32 v60,2013-04-01 13:16:00,
2013-04-01 09:26:00,28.0,18.5,29.80,North,360,18.0,46.0,67,0.00,,,-99.99,Weather View 32 v60,2013-04-01 13:26:00,
2013-04-01 09:36:00,27.0,17.5,29.81,NNW,337,17.0,46.0,67,0.00,,,-99.99,Weather View 32 v60,2013-04-01 13:36:00,
2013-04-01 09:41:00,27.0,18.2,29.81,North,360,22.0,45.0,69,0.00,,,-99.99,Weather View 32 v60,2013-04-01 13:41:00,
2013-04-01 09:46:00,27.0,19.2,29.81,North,360,20.0,45.0,72,0.00,,,-99.99,Weather View 32 v60,2013-04-01 13:46:00,
2013-04-01 09:51:00,27.0,19.2,29.82,North,360,30.0,40.0,72,0.00,,,-99.99,Weather View 32 v60,2013-04-01 13:51:00,
2013-04-01 09:56:00,28.0,16.7,29.82,NNW,337,6.0,40.0,62,0.00,,,-99.99,Weather View 32 v60,2013-04-01 13:56:00,
2013-04-01 10:01:00,28.0,17.8,29.82,North,360,19.0,40.0,65,0.00,,,-99.99,Weather View 32 v60,2013-04-01 14:01:00,
2013-04-01 10:06:00,28.0,19.5,29.82,NNW,337,25.0,40.0,70,0.00,,,-99.99,Weather View 32 v60,2013-04-01 14:06:00,
2013-04-01 10:16:00,27.0,18.5,29.83,North,360,10.0,49.0,70,0.00,,,-99.99,Weather View 32 v60,2013-04-01 14:16:00,
2013-04-01 10:21:00,27.0,19.5,29.83,North,360,23.0,49.0,73,0.00,,,-99.99,Weather View 32 v60,2013-04-01 14:21:00,
2013-04-01 10:31:00,27.0,19.5,29.83,North,360,22.0,53.0,73,0.00,,,-99.99,Weather View 32 v60,2013-04-01 14:31:00,
2013-04-01 10:36:00,27.0,19.2,29.83,NNE,22,12.0,53.0,72,0.00,,,-99.99,Weather View 32 v60,2013-04-01 14:36:00,
2013-04-01 10:41:00,27.0,21.7,29.83,NNW,337,17.0,53.0,80,0.00,,,-99.99,Weather View 32 v60,2013-04-01 14:41:00,
2013-04-01 10:51:00,27.0,20.1,29.83,North,360,14.0,53.0,75,0.00,,,-99.99,Weather View 32 v60,2013-04-01 14:51:00,
2013-04-01 10:56:00,27.0,20.1,29.83,NNE,22,18.0,53.0,75,0.00,,,-99.99,Weather View 32 v60,2013-04-01 14:56:00,
2013-04-01 11:06:00,27.0,16.4,29.83,North,360,23.0,53.0,64,0.00,,,-99.99,Weather View 32 v60,2013-04-01 15:06:00,
2013-04-01 11:16:00,27.0,16.1,29.84,North,360,26.0,53.0,63,0.00,,,-99.99,Weather View 32 v60,2013-04-01 15:16:00,
2013-04-01 11:21:00,27.0,18.5,29.85,North,360,16.0,53.0,70,0.00,,,-99.99,Weather View 32 v60,2013-04-01 15:21:00,
2013-04-01 11:31:00,27.0,17.8,29.85,North,360,22.0,43.0,68,0.00,,,-99.99,Weather View 32 v60,2013-04-01 15:31:00,
2013-04-01 11:36:00,28.0,18.5,29.85,North,360,18.0,43.0,67,0.00,,,-99.99,Weather View 32 v60,2013-04-01 15:36:00,
2013-04-01 11:41:00,28.0,15.9,29.85,NNE,22,22.0,43.0,60,0.00,,,-99.99,Weather View 32 v60,2013-04-01 15:41:00,
2013-04-01 11:51:00,28.0,17.8,29.85,NE,45,11.0,36.0,65,0.00,,,-99.99,Weather View 32 v60,2013-04-01 15:51:00,
2013-04-01 11:56:00,28.0,18.5,29.85,North,360,19.0,36.0,67,0.00,,,-99.99,Weather View 32 v60,2013-04-01 15:56:00,
2013-04-01 12:01:00,27.0,21.1,29.85,NE,45,16.0,36.0,78,0.00,,,-99.99,Weather View 32 v60,2013-04-01 16:01:00,
2013-04-01 12:09:00,27.0,19.2,29.85,North,360,15.0,36.0,72,0.00,,,-99.99,Weather View 32 v60,2013-04-01 16:09:00,
2013-04-01 12:16:00,27.0,16.1,29.86,NNE,22,25.0,38.0,63,0.00,,,-99.99,Weather View 32 v60,2013-04-01 16:16:00,
2013-04-01 12:26:00,27.0,19.5,29.87,NW,315,24.0,38.0,73,0.00,,,-99.99,Weather View 32 v60,2013-04-01 16:26:00,
2013-04-01 12:36:00,27.0,15.7,29.87,North,360,22.0,38.0,62,0.00,,,-99.99,Weather View 32 v60,2013-04-01 16:36:00,
2013-04-01 12:51:00,27.0,16.1,29.87,NW,315,23.0,38.0,63,0.00,,,-99.99,Weather View 32 v60,2013-04-01 16:51:00,
2013-04-01 13:01:00,27.0,19.2,29.87,NNW,337,20.0,38.0,72,0.00,,,-99.99,Weather View 32 v60,2013-04-01 17:01:00,
2013-04-01 13:09:00,27.0,18.5,29.87,NW,315,18.0,38.0,70,0.00,,,-99.99,Weather View 32 v60,2013-04-01 17:09:00,
2013-04-01 13:16:00,27.0,17.8,29.87,North,360,18.0,36.0,68,0.00,,,-99.99,Weather View 32 v60,2013-04-01 17:16:00,
2013-04-01 13:26:00,27.0,16.8,29.87,North,360,4.0,35.0,65,0.00,,,-99.99,Weather View 32 v60,2013-04-01 17:26:00,
2013-04-01 13:31:00,28.0,18.5,29.88,North,360,10.0,33.0,67,0.00,,,-99.99,Weather View 32 v60,2013-04-01 17:31:00,
2013-04-01 13:41:00,27.0,18.5,29.87,North,360,18.0,35.0,70,0.00,,,-99.99,Weather View 32 v60,2013-04-01 17:41:00,
2013-04-01 13:56:00,27.0,19.2,29.87,NNE,22,18.0,35.0,72,0.00,,,-99.99,Weather View 32 v60,2013-04-01 17:56:00,
2013-04-01 14:01:00,27.0,18.5,29.88,NW,315,10.0,35.0,70,0.00,,,-99.99,Weather View 32 v60,2013-04-01 18:01:00,
2013-04-01 14:06:00,27.0,18.5,29.88,NW,315,28.0,35.0,70,0.00,,,-99.99,Weather View 32 v60,2013-04-01 18:06:00,
2013-04-01 14:11:00,28.0,18.1,29.88,NW,315,11.0,35.0,66,0.00,,,-99.99,Weather View 32 v60,2013-04-01 18:11:00,
2013-04-01 14:16:00,28.0,15.1,29.88,NW,315,11.0,35.0,58,0.00,,,-99.99,Weather View 32 v60,2013-04-01 18:16:00,
2013-04-01 14:21:00,28.0,17.0,29.87,NW,315,19.0,35.0,63,0.00,,,-99.99,Weather View 32 v60,2013-04-01 18:21:00,
2013-04-01 14:31:00,27.0,16.4,29.88,NNW,337,11.0,35.0,64,0.00,,,-99.99,Weather View 32 v60,2013-04-01 18:31:00,
2013-04-01 14:41:00,27.0,16.8,29.87,NW,315,20.0,35.0,65,0.00,,,-99.99,Weather View 32 v60,2013-04-01 18:41:00,
2013-04-01 14:46:00,27.0,17.5,29.87,North,360,15.0,35.0,67,0.00,,,-99.99,Weather View 32 v60,2013-04-01 18:46:00,
2013-04-01 14:56:00,27.0,17.8,29.88,WNW,292,12.0,35.0,68,0.00,,,-99.99,Weather View 32 v60,2013-04-01 18:56:00,
2013-04-01 15:16:00,27.0,16.8,29.89,NW,315,23.0,37.0,65,0.00,,,-99.99,Weather View 32 v60,2013-04-01 19:16:00,
2013-04-01 15:26:00,28.0,18.1,29.89,NNW,337,32.0,37.0,66,0.00,,,-99.99,Weather View 32 v60,2013-04-01 19:26:00,
2013-04-01 15:31:00,27.0,16.1,29.89,NW,315,25.0,44.0,63,0.00,,,-99.99,Weather View 32 v60,2013-04-01 19:31:00,
2013-04-01 15:41:00,28.0,18.1,29.88,NW,315,26.0,44.0,66,0.00,,,-99.99,Weather View 32 v60,2013-04-01 19:41:00,
2013-04-01 15:46:00,27.0,17.5,29.88,NW,315,25.0,44.0,67,0.00,,,-99.99,Weather View 32 v60,2013-04-01 19:46:00,
2013-04-01 15:51:00,28.0,20.1,29.88,NW,315,23.0,44.0,72,0.00,,,-99.99,Weather View 32 v60,2013-04-01 19:51:00,
2013-04-01 15:56:00,27.0,17.5,29.88,NW,315,9.0,44.0,67,0.00,,,-99.99,Weather View 32 v60,2013-04-01 19:56:00,
2013-04-01 16:06:00,27.0,16.8,29.89,North,360,18.0,44.0,65,0.00,,,-99.99,Weather View 32 v60,2013-04-01 20:06:00,
2013-04-01 16:11:00,28.0,17.8,29.89,NW,315,19.0,44.0,65,0.00,,,-99.99,Weather View 32 v60,2013-04-01 20:11:00,
2013-04-01 16:21:00,28.0,17.0,29.89,North,360,12.0,44.0,63,0.00,,,-99.99,Weather View 32 v60,2013-04-01 20:21:00,
2013-04-01 16:26:00,28.0,16.3,29.89,NW,315,17.0,44.0,61,0.00,,,-99.99,Weather View 32 v60,2013-04-01 20:26:00,
2013-04-01 16:31:00,28.0,16.3,29.88,North,360,12.0,39.0,61,0.00,,,-99.99,Weather View 32 v60,2013-04-01 20:31:00,
2013-04-01 16:36:00,28.0,16.7,29.88,WNW,292,19.0,39.0,62,0.00,,,-99.99,Weather View 32 v60,2013-04-01 20:36:00,
2013-04-01 16:46:00,28.0,17.4,29.89,NW,315,23.0,39.0,64,0.00,,,-99.99,Weather View 32 v60,2013-04-01 20:46:00,
2013-04-01 16:56:00,28.0,15.5,29.89,NW,315,13.0,39.0,59,0.00,,,-99.99,Weather View 32 v60,2013-04-01 20:56:00,
2013-04-01 17:06:00,29.0,18.7,29.88,NW,315,16.0,39.0,65,0.00,,,-99.99,Weather View 32 v60,2013-04-01 21:06:00,
2013-04-01 17:12:00,29.0,16.1,29.88,NW,315,10.0,39.0,58,0.00,,,-99.99,Weather View 32 v60,2013-04-01 21:12:00,
2013-04-01 17:31:00,29.0,16.8,29.89,NW,315,9.0,32.0,60,0.00,,,-99.99,Weather View 32 v60,2013-04-01 21:31:00,
2013-04-01 17:41:00,28.0,17.0,29.88,West,270,19.0,30.0,63,0.00,,,-99.99,Weather View 32 v60,2013-04-01 21:41:00,
2013-04-01 17:51:00,29.0,17.2,29.88,North,360,11.0,28.0,61,0.00,,,-99.99,Weather View 32 v60,2013-04-01 21:51:00,
2013-04-01 17:56:00,29.0,18.0,29.88,NW,315,12.0,28.0,63,0.00,,,-99.99,Weather View 32 v60,2013-04-01 21:56:00,
2013-04-01 18:06:00,29.0,18.3,29.88,WNW,292,6.0,28.0,64,0.00,,,-99.99,Weather View 32 v60,2013-04-01 22:06:00,
2013-04-01 18:11:00,30.0,20.4,29.88,North,360,10.0,28.0,67,0.00,,,-99.99,Weather View 32 v60,2013-04-01 22:11:00,
2013-04-01 18:16:00,29.0,18.3,29.88,NNW,337,14.0,28.0,64,0.00,,,-99.99,Weather View 32 v60,2013-04-01 22:16:00,
2013-04-01 18:26:00,29.0,18.7,29.88,North,360,11.0,28.0,65,0.00,,,-99.99,Weather View 32 v60,2013-04-01 22:26:00,
2013-04-01 18:31:00,29.0,19.4,29.88,North,360,15.0,28.0,67,0.00,,,-99.99,Weather View 32 v60,2013-04-01 22:31:00,
2013-04-01 18:41:00,29.0,19.4,29.88,NNE,22,11.0,28.0,67,0.00,,,-99.99,Weather View 32 v60,2013-04-01 22:41:00,
2013-04-01 18:46:00,29.0,20.4,29.88,North,360,11.0,28.0,70,0.00,,,-99.99,Weather View 32 v60,2013-04-01 22:46:00,
2013-04-01 18:51:00,29.0,19.1,29.89,NNW,337,13.0,28.0,66,0.00,,,-99.99,Weather View 32 v60,2013-04-01 22:51:00,
2013-04-01 18:56:00,29.0,19.4,29.89,NW,315,11.0,28.0,67,0.00,,,-99.99,Weather View 32 v60,2013-04-01 22:56:00,
2013-04-01 19:11:00,30.0,20.0,29.89,North,360,13.0,28.0,66,0.00,,,-99.99,Weather View 32 v60,2013-04-01 23:11:00,
2013-04-01 19:21:00,29.0,19.4,29.89,North,360,6.0,28.0,67,0.00,,,-99.99,Weather View 32 v60,2013-04-01 23:21:00,
2013-04-01 19:26:00,29.0,19.8,29.89,NNW,337,12.0,28.0,68,0.00,,,-99.99,Weather View 32 v60,2013-04-01 23:26:00,
2013-04-01 19:31:00,29.0,19.1,29.89,NNW,337,8.0,28.0,66,0.00,,,-99.99,Weather View 32 v60,2013-04-01 23:31:00,
2013-04-01 19:36:00,29.0,20.1,29.89,NW,315,10.0,26.0,69,0.00,,,-99.99,Weather View 32 v60,2013-04-01 23:36:00,
2013-04-01 19:46:00,29.0,19.4,29.89,North,360,8.0,25.0,67,0.00,,,-99.99,Weather View 32 v60,2013-04-01 23:46:00,
2013-04-01 19:56:00,29.0,18.7,29.89,North,360,13.0,23.0,65,0.00,,,-99.99,Weather View 32 v60,2013-04-01 23:56:00,
2013-04-01 20:06:00,29.0,19.8,29.89,NW,315,9.0,22.0,68,0.00,,,-99.99,Weather View 32 v60,2013-04-02 00:06:00,
2013-04-01 20:11:00,29.0,18.3,29.89,North,360,12.0,22.0,64,0.00,,,-99.99,Weather View 32 v60,2013-04-02 00:11:00,
2013-04-01 20:21:00,29.0,19.4,29.89,NW,315,14.0,22.0,67,0.00,,,-99.99,Weather View 32 v60,2013-04-02 00:21:00,
2013-04-01 20:36:00,29.0,19.1,29.89,North,360,11.0,22.0,66,0.00,,,-99.99,Weather View 32 v60,2013-04-02 00:36:00,
2013-04-01 20:46:00,29.0,18.3,29.89,North,360,16.0,24.0,64,0.00,,,-99.99,Weather View 32 v60,2013-04-02 00:46:00,
2013-04-01 20:51:00,29.0,19.4,29.89,NE,45,5.0,24.0,67,0.00,,,-99.99,Weather View 32 v60,2013-04-02 00:51:00,
2013-04-01 21:01:00,29.0,19.4,29.89,North,360,12.0,24.0,67,0.00,,,-99.99,Weather View 32 v60,2013-04-02 01:01:00,
2013-04-01 21:06:00,29.0,18.7,29.89,North,360,15.0,25.0,65,0.00,,,-99.99,Weather View 32 v60,2013-04-02 01:06:00,
2013-04-01 21:11:00,29.0,20.4,29.89,NW,315,12.0,25.0,70,0.00,,,-99.99,Weather View 32 v60,2013-04-02 01:11:00,
2013-04-01 21:26:00,29.0,20.4,29.89,NNW,337,12.0,27.0,70,0.00,,,-99.99,Weather View 32 v60,2013-04-02 01:26:00,
2013-04-01 21:36:00,29.0,21.4,29.89,North,360,13.0,28.0,73,0.00,,,-99.99,Weather View 32 v60,2013-04-02 01:36:00,
2013-04-01 21:46:00,29.0,22.1,29.90,NW,315,7.0,28.0,75,0.00,,,-99.99,Weather View 32 v60,2013-04-02 01:46:00,
2013-04-01 21:51:00,29.0,22.7,29.90,North,360,10.0,28.0,77,0.00,,,-99.99,Weather View 32 v60,2013-04-02 01:51:00,
2013-04-01 21:56:00,29.0,23.0,29.90,NNW,337,7.0,28.0,78,0.00,,,-99.99,Weather View 32 v60,2013-04-02 01:56:00,
2013-04-01 22:06:00,29.0,22.1,29.90,NW,315,10.0,28.0,75,0.00,,,-99.99,Weather View 32 v60,2013-04-02 02:06:00,
2013-04-01 22:11:00,29.0,21.4,29.90,NW,315,5.0,28.0,73,0.00,,,-99.99,Weather View 32 v60,2013-04-02 02:11:00,
2013-04-01 22:16:00,30.0,22.4,29.90,North,360,6.0,28.0,73,0.00,,,-99.99,Weather View 32 v60,2013-04-02 02:16:00,
2013-04-01 22:26:00,30.0,23.4,29.89,WNW,292,14.0,28.0,76,0.00,,,-99.99,Weather View 32 v60,2013-04-02 02:26:00,
2013-04-01 22:36:00,30.0,18.9,29.90,North,360,15.0,25.0,63,0.00,,,-99.99,Weather View 32 v60,2013-04-02 02:36:00,
2013-04-01 22:41:00,30.0,18.9,29.89,WSW,247,8.0,28.0,63,0.00,,,-99.99,Weather View 32 v60,2013-04-02 02:41:00,
2013-04-01 22:46:00,31.0,22.0,29.89,NW,315,24.0,28.0,69,0.00,,,-99.99,Weather View 32 v60,2013-04-02 02:46:00,
2013-04-01 22:56:00,31.0,19.5,29.90,NW,315,27.0,32.0,62,0.00,,,-99.99,Weather View 32 v60,2013-04-02 02:56:00,
2013-04-01 23:01:00,31.0,22.4,29.90,NW,315,18.0,32.0,70,0.00,,,-99.99,Weather View 32 v60,2013-04-02 03:01:00,
2013-04-01 23:06:00,31.0,18.7,29.90,WNW,292,13.0,38.0,60,0.00,,,-99.99,Weather View 32 v60,2013-04-02 03:06:00,
2013-04-01 23:11:00,31.0,18.3,29.89,North,360,17.0,38.0,59,0.00,,,-99.99,Weather View 32 v60,2013-04-02 03:11:00,
2013-04-01 23:21:00,31.0,17.9,29.89,NW,315,11.0,38.0,58,0.00,,,-99.99,Weather View 32 v60,2013-04-02 03:21:00,
2013-04-01 23:26:00,31.0,18.7,29.89,NW,315,13.0,38.0,60,0.00,,,-99.99,Weather View 32 v60,2013-04-02 03:26:00,
2013-04-01 23:31:00,31.0,19.5,29.89,North,360,15.0,38.0,62,0.00,,,-99.99,Weather View 32 v60,2013-04-02 03:31:00,
2013-04-01 23:36:00,31.0,18.7,29.89,North,360,12.0,38.0,60,0.00,,,-99.99,Weather View 32 v60,2013-04-02 03:36:00,
2013-04-01 23:41:00,31.0,19.9,29.89,NW,315,18.0,38.0,63,0.00,,,-99.99,Weather View 32 v60,2013-04-02 03:41:00,
2013-04-01 23:46:00,31.0,17.5,29.89,NE,45,13.0,38.0,57,0.00,,,-99.99,Weather View 32 v60,2013-04-02 03:46:00,
2013-04-01 23:56:00,31.0,17.9,29.89,North,360,11.0,38.0,58,0.00,,,-99.99,Weather View 32 v60,2013-04-02 03:56:00,